Year,Month,Day,Hour,Minute,Value (Times are PST for temperature in C)
2016,04,17,00,00,8.20
2016,04,17,00,01,8.20
2016,04,17,00,02,8.20
2016,04,17,00,03,8.20
2016,04,17,00,04,8.20
2016,04,17,00,05,8.20
2016,04,17,00,06,8.20
2016,04,17,00,07,8.20
2016,04,17,00,08,8.20
2016,04,17,00,09,8.20
2016,04,17,00,10,8.20
2016,04,17,00,11,8.20
2016,04,17,00,12,8.20
2016,04,17,00,13,8.20
2016,04,17,00,14,8.20
2016,04,17,00,15,8.20
2016,04,17,00,16,8.10
2016,04,17,00,17,8.10
2016,04,17,00,18,8.10
2016,04,17,00,19,8.10
2016,04,17,00,20,8.10
2016,04,17,00,21,8.10
2016,04,17,00,22,8.10
2016,04,17,00,23,8.10
2016,04,17,00,24,8.10
2016,04,17,00,25,8.10
2016,04,17,00,26,8.10
2016,04,17,00,27,8.10
2016,04,17,00,28,8.10
2016,04,17,00,29,8.10
2016,04,17,00,30,8.10
2016,04,17,00,31,8.10
2016,04,17,00,32,8.10
2016,04,17,00,33,8.10
2016,04,17,00,34,8.10
2016,04,17,00,35,8.10
2016,04,17,00,36,8.20
2016,04,17,00,37,8.20
2016,04,17,00,38,8.20
2016,04,17,00,39,8.20
2016,04,17,00,40,8.20
2016,04,17,00,41,8.20
2016,04,17,00,42,8.20
2016,04,17,00,43,8.20
2016,04,17,00,44,8.20
2016,04,17,00,45,8.30
2016,04,17,00,46,8.30
2016,04,17,00,47,8.30
2016,04,17,00,48,8.30
2016,04,17,00,49,8.30
2016,04,17,00,50,8.30
2016,04,17,00,51,8.30
2016,04,17,00,52,8.30
2016,04,17,00,53,8.30
2016,04,17,00,54,8.40
2016,04,17,00,55,8.40
2016,04,17,00,56,8.40
2016,04,17,00,57,8.40
2016,04,17,00,58,8.40
2016,04,17,00,59,8.50
2016,04,17,01,00,8.50
2016,04,17,01,01,8.50
2016,04,17,01,02,8.60
2016,04,17,01,03,8.60
2016,04,17,01,04,8.60
2016,04,17,01,05,8.60
2016,04,17,01,06,8.60
2016,04,17,01,07,8.70
2016,04,17,01,08,8.70
2016,04,17,01,09,8.70
2016,04,17,01,10,8.70
2016,04,17,01,11,8.70
2016,04,17,01,12,8.70
2016,04,17,01,13,8.70
2016,04,17,01,14,8.70
2016,04,17,01,15,8.70
2016,04,17,01,16,8.70
2016,04,17,01,17,8.60
2016,04,17,01,18,8.60
2016,04,17,01,19,8.60
2016,04,17,01,20,8.60
2016,04,17,01,21,8.60
2016,04,17,01,22,8.60
2016,04,17,01,23,8.60
2016,04,17,01,24,8.60
2016,04,17,01,25,8.60
2016,04,17,01,26,8.60
2016,04,17,01,27,8.60
2016,04,17,01,28,8.50
2016,04,17,01,29,8.50
2016,04,17,01,30,8.50
2016,04,17,01,31,8.50
2016,04,17,01,32,8.50
2016,04,17,01,33,8.50
2016,04,17,01,34,8.50
2016,04,17,01,35,8.50
2016,04,17,01,36,8.50
2016,04,17,01,37,8.50
2016,04,17,01,38,8.50
2016,04,17,01,39,8.40
2016,04,17,01,40,8.40
2016,04,17,01,41,8.40
2016,04,17,01,42,8.40
2016,04,17,01,43,8.40
2016,04,17,01,44,8.50
2016,04,17,01,45,8.50
2016,04,17,01,46,8.50
2016,04,17,01,47,8.40
2016,04,17,01,48,8.40
2016,04,17,01,49,8.40
2016,04,17,01,50,8.40
2016,04,17,01,51,8.40
2016,04,17,01,52,8.40
2016,04,17,01,53,8.40
2016,04,17,01,54,8.40
2016,04,17,01,55,8.40
2016,04,17,01,56,8.40
2016,04,17,01,57,8.40
2016,04,17,01,58,8.30
2016,04,17,01,59,8.30
2016,04,17,02,00,8.30
2016,04,17,02,01,8.30
2016,04,17,02,02,8.30
2016,04,17,02,03,8.30
2016,04,17,02,04,8.30
2016,04,17,02,05,8.30
2016,04,17,02,06,8.30
2016,04,17,02,07,8.30
2016,04,17,02,08,8.30
2016,04,17,02,09,8.30
2016,04,17,02,10,8.30
2016,04,17,02,11,8.30
2016,04,17,02,12,8.30
2016,04,17,02,13,8.30
2016,04,17,02,14,8.30
2016,04,17,02,15,8.30
2016,04,17,02,16,8.30
2016,04,17,02,17,8.30
2016,04,17,02,18,8.30
2016,04,17,02,19,8.30
2016,04,17,02,20,8.30
2016,04,17,02,21,8.30
2016,04,17,02,22,8.30
2016,04,17,02,23,8.30
2016,04,17,02,24,8.30
2016,04,17,02,25,8.30
2016,04,17,02,26,8.30
2016,04,17,02,27,8.30
2016,04,17,02,28,8.30
2016,04,17,02,29,8.30
2016,04,17,02,30,8.30
2016,04,17,02,31,8.30
2016,04,17,02,32,8.30
2016,04,17,02,33,8.30
2016,04,17,02,34,8.20
2016,04,17,02,35,8.20
2016,04,17,02,36,8.20
2016,04,17,02,37,8.20
2016,04,17,02,38,8.20
2016,04,17,02,39,8.20
2016,04,17,02,40,8.20
2016,04,17,02,41,8.20
2016,04,17,02,42,8.20
2016,04,17,02,43,8.20
2016,04,17,02,44,8.10
2016,04,17,02,45,8.10
2016,04,17,02,46,8.10
2016,04,17,02,47,8.10
2016,04,17,02,48,8.10
2016,04,17,02,49,8.10
2016,04,17,02,50,8.10
2016,04,17,02,51,8.10
2016,04,17,02,52,8.10
2016,04,17,02,53,8.00
2016,04,17,02,54,8.00
2016,04,17,02,55,8.00
2016,04,17,02,56,8.00
2016,04,17,02,57,8.00
2016,04,17,02,58,8.00
2016,04,17,02,59,8.00
2016,04,17,03,00,8.00
2016,04,17,03,01,8.00
2016,04,17,03,02,8.00
2016,04,17,03,03,8.00
2016,04,17,03,04,8.00
2016,04,17,03,05,8.00
2016,04,17,03,06,8.00
2016,04,17,03,07,7.90
2016,04,17,03,08,7.90
2016,04,17,03,09,7.90
2016,04,17,03,10,7.90
2016,04,17,03,11,7.90
2016,04,17,03,12,7.90
2016,04,17,03,13,7.90
2016,04,17,03,14,7.90
2016,04,17,03,15,7.90
2016,04,17,03,16,7.90
2016,04,17,03,17,7.90
2016,04,17,03,18,7.90
2016,04,17,03,19,7.80
2016,04,17,03,20,7.80
2016,04,17,03,21,7.80
2016,04,17,03,22,7.80
2016,04,17,03,23,7.80
2016,04,17,03,24,7.80
2016,04,17,03,25,7.80
2016,04,17,03,26,7.80
2016,04,17,03,27,7.80
2016,04,17,03,28,7.70
2016,04,17,03,29,7.70
2016,04,17,03,30,7.70
2016,04,17,03,31,7.70
2016,04,17,03,32,7.70
2016,04,17,03,33,7.70
2016,04,17,03,34,7.70
2016,04,17,03,35,7.70
2016,04,17,03,36,7.70
2016,04,17,03,37,7.70
2016,04,17,03,38,7.70
2016,04,17,03,39,7.70
2016,04,17,03,40,7.70
2016,04,17,03,41,7.70
2016,04,17,03,42,7.60
2016,04,17,03,43,7.60
2016,04,17,03,44,7.60
2016,04,17,03,45,7.60
2016,04,17,03,46,7.60
2016,04,17,03,47,7.60
2016,04,17,03,48,7.60
2016,04,17,03,49,7.60
2016,04,17,03,50,7.60
2016,04,17,03,51,7.60
2016,04,17,03,52,7.60
2016,04,17,03,53,7.60
2016,04,17,03,54,7.50
2016,04,17,03,55,7.50
2016,04,17,03,56,7.50
2016,04,17,03,57,7.50
2016,04,17,03,58,7.50
2016,04,17,03,59,7.50
2016,04,17,04,00,7.50
2016,04,17,04,01,7.50
2016,04,17,04,02,7.50
2016,04,17,04,03,7.40
2016,04,17,04,04,7.40
2016,04,17,04,05,7.40
2016,04,17,04,06,7.40
2016,04,17,04,07,7.40
2016,04,17,04,08,7.40
2016,04,17,04,09,7.40
2016,04,17,04,10,7.40
2016,04,17,04,11,7.40
2016,04,17,04,12,7.40
2016,04,17,04,13,7.30
2016,04,17,04,14,7.30
2016,04,17,04,15,7.30
2016,04,17,04,16,7.20
2016,04,17,04,17,7.20
2016,04,17,04,18,7.20
2016,04,17,04,19,7.20
2016,04,17,04,20,7.20
2016,04,17,04,21,7.20
2016,04,17,04,22,7.20
2016,04,17,04,23,7.20
2016,04,17,04,24,7.20
2016,04,17,04,25,7.20
2016,04,17,04,26,7.20
2016,04,17,04,27,7.20
2016,04,17,04,28,7.20
2016,04,17,04,29,7.20
2016,04,17,04,30,7.20
2016,04,17,04,31,7.20
2016,04,17,04,32,7.20
2016,04,17,04,33,7.20
2016,04,17,04,34,7.20
2016,04,17,04,35,7.20
2016,04,17,04,36,7.20
2016,04,17,04,37,7.20
2016,04,17,04,38,7.10
2016,04,17,04,39,7.10
2016,04,17,04,40,7.10
2016,04,17,04,41,7.10
2016,04,17,04,42,7.10
2016,04,17,04,43,7.00
2016,04,17,04,44,7.00
2016,04,17,04,45,7.00
2016,04,17,04,46,6.90
2016,04,17,04,47,6.90
2016,04,17,04,48,6.90
2016,04,17,04,49,6.90
2016,04,17,04,50,6.90
2016,04,17,04,51,6.80
2016,04,17,04,52,6.80
2016,04,17,04,53,6.80
2016,04,17,04,54,6.80
2016,04,17,04,55,6.80
2016,04,17,04,56,6.80
2016,04,17,04,57,6.70
2016,04,17,04,58,6.70
2016,04,17,04,59,6.70
2016,04,17,05,00,6.70
2016,04,17,05,01,6.70
2016,04,17,05,02,6.70
2016,04,17,05,03,6.70
2016,04,17,05,04,6.70
2016,04,17,05,05,6.60
2016,04,17,05,06,6.70
2016,04,17,05,07,6.60
2016,04,17,05,08,6.60
2016,04,17,05,09,6.60
2016,04,17,05,10,6.60
2016,04,17,05,11,6.60
2016,04,17,05,12,6.60
2016,04,17,05,13,6.50
2016,04,17,05,14,6.50
2016,04,17,05,15,6.50
2016,04,17,05,16,6.50
2016,04,17,05,17,6.40
2016,04,17,05,18,6.40
2016,04,17,05,19,6.40
2016,04,17,05,20,6.40
2016,04,17,05,21,6.40
2016,04,17,05,22,6.40
2016,04,17,05,23,6.40
2016,04,17,05,24,6.40
2016,04,17,05,25,6.40
2016,04,17,05,26,6.40
2016,04,17,05,27,6.40
2016,04,17,05,28,6.40
2016,04,17,05,29,6.40
2016,04,17,05,30,6.40
2016,04,17,05,31,6.40
2016,04,17,05,32,6.40
2016,04,17,05,33,6.40
2016,04,17,05,34,6.40
2016,04,17,05,35,6.40
2016,04,17,05,36,6.40
2016,04,17,05,37,6.40
2016,04,17,05,38,6.40
2016,04,17,05,39,6.40
2016,04,17,05,40,6.40
2016,04,17,05,41,6.40
2016,04,17,05,42,6.40
2016,04,17,05,43,6.40
2016,04,17,05,44,6.40
2016,04,17,05,45,6.40
2016,04,17,05,46,6.40
2016,04,17,05,47,6.40
2016,04,17,05,48,6.40
2016,04,17,05,49,6.40
2016,04,17,05,50,6.40
2016,04,17,05,51,6.40
2016,04,17,05,52,6.40
2016,04,17,05,53,6.40
2016,04,17,05,54,6.40
2016,04,17,05,55,6.40
2016,04,17,05,56,6.40
2016,04,17,05,57,6.40
2016,04,17,05,58,6.40
2016,04,17,05,59,6.40
2016,04,17,06,00,6.40
2016,04,17,06,01,6.40
2016,04,17,06,02,6.40
2016,04,17,06,03,6.40
2016,04,17,06,04,6.40
2016,04,17,06,05,6.40
2016,04,17,06,06,6.40
2016,04,17,06,07,6.40
2016,04,17,06,08,6.30
2016,04,17,06,09,6.30
2016,04,17,06,10,6.30
2016,04,17,06,11,6.30
2016,04,17,06,12,6.30
2016,04,17,06,13,6.30
2016,04,17,06,14,6.30
2016,04,17,06,15,6.30
2016,04,17,06,16,6.30
2016,04,17,06,17,6.30
2016,04,17,06,18,6.30
2016,04,17,06,19,6.30
2016,04,17,06,20,6.30
2016,04,17,06,21,6.30
2016,04,17,06,22,6.30
2016,04,17,06,23,6.30
2016,04,17,06,24,6.30
2016,04,17,06,25,6.30
2016,04,17,06,26,6.30
2016,04,17,06,27,6.30
2016,04,17,06,28,6.30
2016,04,17,06,29,6.30
2016,04,17,06,30,6.30
2016,04,17,06,31,6.30
2016,04,17,06,32,6.30
2016,04,17,06,33,6.30
2016,04,17,06,34,6.30
2016,04,17,06,35,6.30
2016,04,17,06,36,6.30
2016,04,17,06,37,6.20
2016,04,17,06,38,6.20
2016,04,17,06,39,6.20
2016,04,17,06,40,6.20
2016,04,17,06,41,6.20
2016,04,17,06,42,6.20
2016,04,17,06,43,6.20
2016,04,17,06,44,6.20
2016,04,17,06,45,6.20
2016,04,17,06,46,6.30
2016,04,17,06,47,6.30
2016,04,17,06,48,6.30
2016,04,17,06,49,6.30
2016,04,17,06,50,6.30
2016,04,17,06,51,6.30
2016,04,17,06,52,6.30
2016,04,17,06,53,6.30
2016,04,17,06,54,6.30
2016,04,17,06,55,6.30
2016,04,17,06,56,6.40
2016,04,17,06,57,6.40
2016,04,17,06,58,6.40
2016,04,17,06,59,6.40
2016,04,17,07,00,6.40
2016,04,17,07,01,6.50
2016,04,17,07,02,6.50
2016,04,17,07,03,6.50
2016,04,17,07,04,6.60
2016,04,17,07,05,6.60
2016,04,17,07,06,6.70
2016,04,17,07,07,6.70
2016,04,17,07,08,6.70
2016,04,17,07,09,6.70
2016,04,17,07,10,6.80
2016,04,17,07,11,6.80
2016,04,17,07,12,6.80
2016,04,17,07,13,6.90
2016,04,17,07,14,6.90
2016,04,17,07,15,7.00
2016,04,17,07,16,7.10
2016,04,17,07,17,7.10
2016,04,17,07,18,7.20
2016,04,17,07,19,7.20
2016,04,17,07,20,7.20
2016,04,17,07,21,7.30
2016,04,17,07,22,7.30
2016,04,17,07,23,7.50
2016,04,17,07,24,7.60
2016,04,17,07,25,7.70
2016,04,17,07,26,7.80
2016,04,17,07,27,7.80
2016,04,17,07,28,7.90
2016,04,17,07,29,8.00
2016,04,17,07,30,8.00
2016,04,17,07,31,8.10
2016,04,17,07,32,8.20
2016,04,17,07,33,8.20
2016,04,17,07,34,8.20
2016,04,17,07,35,8.30
2016,04,17,07,36,8.30
2016,04,17,07,37,8.30
2016,04,17,07,38,8.40
2016,04,17,07,39,8.40
2016,04,17,07,40,8.50
2016,04,17,07,41,8.50
2016,04,17,07,42,8.60
2016,04,17,07,43,8.60
2016,04,17,07,44,8.60
2016,04,17,07,45,8.60
2016,04,17,07,46,8.70
2016,04,17,07,47,8.70
2016,04,17,07,48,8.70
2016,04,17,07,49,8.80
2016,04,17,07,50,8.80
2016,04,17,07,51,8.80
2016,04,17,07,52,8.90
2016,04,17,07,53,8.90
2016,04,17,07,54,8.90
2016,04,17,07,55,9.00
2016,04,17,07,56,9.00
2016,04,17,07,57,9.10
2016,04,17,07,58,9.10
2016,04,17,07,59,9.10
2016,04,17,08,00,9.20
2016,04,17,08,01,9.20
2016,04,17,08,02,9.20
2016,04,17,08,03,9.30
2016,04,17,08,04,9.30
2016,04,17,08,05,9.30
2016,04,17,08,06,9.40
2016,04,17,08,07,9.40
2016,04,17,08,08,9.50
2016,04,17,08,09,9.50
2016,04,17,08,10,9.60
2016,04,17,08,11,9.60
2016,04,17,08,12,9.60
2016,04,17,08,13,9.60
2016,04,17,08,14,9.70
2016,04,17,08,15,9.70
2016,04,17,08,16,9.80
2016,04,17,08,17,9.80
2016,04,17,08,18,9.80
2016,04,17,08,19,9.80
2016,04,17,08,20,9.90
2016,04,17,08,21,9.90
2016,04,17,08,22,9.90
2016,04,17,08,23,10.00
2016,04,17,08,24,10.00
2016,04,17,08,25,10.00
2016,04,17,08,26,10.00
2016,04,17,08,27,10.10
2016,04,17,08,28,10.10
2016,04,17,08,29,10.10
2016,04,17,08,30,10.10
2016,04,17,08,31,10.10
2016,04,17,08,32,10.20
2016,04,17,08,33,10.20
2016,04,17,08,34,10.20
2016,04,17,08,35,10.20
2016,04,17,08,36,10.30
2016,04,17,08,37,10.30
2016,04,17,08,38,10.30
2016,04,17,08,39,10.30
2016,04,17,08,40,10.40
2016,04,17,08,41,10.40
2016,04,17,08,42,10.40
2016,04,17,08,43,10.50
2016,04,17,08,44,10.50
2016,04,17,08,45,10.50
2016,04,17,08,46,10.60
2016,04,17,08,47,10.60
2016,04,17,08,48,10.70
2016,04,17,08,49,10.70
2016,04,17,08,50,10.60
2016,04,17,08,51,10.70
2016,04,17,08,52,10.70
2016,04,17,08,53,10.70
2016,04,17,08,54,10.70
2016,04,17,08,55,10.80
2016,04,17,08,56,10.80
2016,04,17,08,57,10.80
2016,04,17,08,58,10.80
2016,04,17,08,59,10.80
2016,04,17,09,00,10.80
2016,04,17,09,01,10.80
2016,04,17,09,02,10.80
2016,04,17,09,03,10.80
2016,04,17,09,04,10.90
2016,04,17,09,05,10.90
2016,04,17,09,06,11.00
2016,04,17,09,07,11.10
2016,04,17,09,08,11.10
2016,04,17,09,09,11.20
2016,04,17,09,10,11.30
2016,04,17,09,11,11.30
2016,04,17,09,12,11.40
2016,04,17,09,13,11.40
2016,04,17,09,14,11.40
2016,04,17,09,15,11.50
2016,04,17,09,16,11.50
2016,04,17,09,17,11.60
2016,04,17,09,18,11.70
2016,04,17,09,19,11.70
2016,04,17,09,20,11.80
2016,04,17,09,21,11.80
2016,04,17,09,22,11.80
2016,04,17,09,23,11.90
2016,04,17,09,24,12.00
2016,04,17,09,25,12.00
2016,04,17,09,26,12.00
2016,04,17,09,27,12.10
2016,04,17,09,28,12.10
2016,04,17,09,29,12.10
2016,04,17,09,30,12.10
2016,04,17,09,31,12.10
2016,04,17,09,32,12.10
2016,04,17,09,33,12.00
2016,04,17,09,34,12.00
2016,04,17,09,35,11.90
2016,04,17,09,36,11.80
2016,04,17,09,37,11.80
2016,04,17,09,38,11.80
2016,04,17,09,39,11.70
2016,04,17,09,40,11.70
2016,04,17,09,41,11.70
2016,04,17,09,42,11.70
2016,04,17,09,43,11.70
2016,04,17,09,44,11.70
2016,04,17,09,45,11.70
2016,04,17,09,46,11.70
2016,04,17,09,47,11.60
2016,04,17,09,48,11.60
2016,04,17,09,49,11.60
2016,04,17,09,50,11.60
2016,04,17,09,51,11.60
2016,04,17,09,52,11.60
2016,04,17,09,53,11.60
2016,04,17,09,54,11.50
2016,04,17,09,55,11.50
2016,04,17,09,56,11.50
2016,04,17,09,57,11.50
2016,04,17,09,58,11.40
2016,04,17,09,59,11.40
2016,04,17,10,00,11.40
2016,04,17,10,01,11.40
2016,04,17,10,02,11.50
2016,04,17,10,03,11.50
2016,04,17,10,04,11.50
2016,04,17,10,05,11.50
2016,04,17,10,06,11.50
2016,04,17,10,07,11.50
2016,04,17,10,08,11.50
2016,04,17,10,09,11.50
2016,04,17,10,10,11.50
2016,04,17,10,11,11.50
2016,04,17,10,12,11.50
2016,04,17,10,13,11.50
2016,04,17,10,14,11.50
2016,04,17,10,15,11.40
2016,04,17,10,16,11.40
2016,04,17,10,17,11.50
2016,04,17,10,18,11.50
2016,04,17,10,19,11.50
2016,04,17,10,20,11.60
2016,04,17,10,21,11.60
2016,04,17,10,22,11.60
2016,04,17,10,23,11.70
2016,04,17,10,24,11.70
2016,04,17,10,25,11.70
2016,04,17,10,26,11.80
2016,04,17,10,27,11.80
2016,04,17,10,28,11.80
2016,04,17,10,29,11.80
2016,04,17,10,30,11.80
2016,04,17,10,31,11.80
2016,04,17,10,32,11.80
2016,04,17,10,33,11.80
2016,04,17,10,34,11.80
2016,04,17,10,35,11.80
2016,04,17,10,36,11.80
2016,04,17,10,37,11.90
2016,04,17,10,38,11.90
2016,04,17,10,39,12.00
2016,04,17,10,40,12.00
2016,04,17,10,41,12.00
2016,04,17,10,42,12.00
2016,04,17,10,43,12.10
2016,04,17,10,44,12.10
2016,04,17,10,45,12.10
2016,04,17,10,46,12.10
2016,04,17,10,47,12.10
2016,04,17,10,48,12.10
2016,04,17,10,49,12.10
2016,04,17,10,50,12.10
2016,04,17,10,51,12.10
2016,04,17,10,52,12.10
2016,04,17,10,53,12.10
2016,04,17,10,54,12.10
2016,04,17,10,55,12.10
2016,04,17,10,56,12.10
2016,04,17,10,57,12.10
2016,04,17,10,58,12.10
2016,04,17,10,59,12.20
2016,04,17,11,00,12.20
2016,04,17,11,01,12.20
2016,04,17,11,02,12.30
2016,04,17,11,03,12.30
2016,04,17,11,04,12.30
2016,04,17,11,05,12.40
2016,04,17,11,06,12.40
2016,04,17,11,07,12.40
2016,04,17,11,08,12.40
2016,04,17,11,09,12.40
2016,04,17,11,10,12.40
2016,04,17,11,11,12.40
2016,04,17,11,12,12.40
2016,04,17,11,13,12.40
2016,04,17,11,14,12.40
2016,04,17,11,15,12.40
2016,04,17,11,16,12.40
2016,04,17,11,17,12.40
2016,04,17,11,18,12.30
2016,04,17,11,19,12.40
2016,04,17,11,20,12.40
2016,04,17,11,21,12.50
2016,04,17,11,22,12.50
2016,04,17,11,23,12.60
2016,04,17,11,24,12.60
2016,04,17,11,25,12.70
2016,04,17,11,26,12.80
2016,04,17,11,27,12.80
2016,04,17,11,28,12.90
2016,04,17,11,29,12.90
2016,04,17,11,30,12.90
2016,04,17,11,31,12.90
2016,04,17,11,32,12.90
2016,04,17,11,33,12.90
2016,04,17,11,34,13.00
2016,04,17,11,35,13.00
2016,04,17,11,36,13.00
2016,04,17,11,37,13.00
2016,04,17,11,38,13.00
2016,04,17,11,39,12.90
2016,04,17,11,40,12.90
2016,04,17,11,41,12.90
2016,04,17,11,42,12.90
2016,04,17,11,43,12.90
2016,04,17,11,44,12.90
2016,04,17,11,45,12.90
2016,04,17,11,46,12.90
2016,04,17,11,47,12.90
2016,04,17,11,48,12.90
2016,04,17,11,49,13.00
2016,04,17,11,50,13.00
2016,04,17,11,51,13.00
2016,04,17,11,52,13.00
2016,04,17,11,53,12.90
2016,04,17,11,54,12.90
2016,04,17,11,55,13.00
2016,04,17,11,56,13.00
2016,04,17,11,57,13.00
2016,04,17,11,58,13.00
2016,04,17,11,59,13.10
2016,04,17,12,00,13.00
2016,04,17,12,01,13.00
2016,04,17,12,02,13.10
2016,04,17,12,03,13.10
2016,04,17,12,04,13.10
2016,04,17,12,05,13.10
2016,04,17,12,06,13.10
2016,04,17,12,07,13.10
2016,04,17,12,08,13.00
2016,04,17,12,09,13.00
2016,04,17,12,10,13.00
2016,04,17,12,11,12.90
2016,04,17,12,12,12.90
2016,04,17,12,13,12.90
2016,04,17,12,14,12.80
2016,04,17,12,15,12.80
2016,04,17,12,16,12.80
2016,04,17,12,17,12.70
2016,04,17,12,18,12.70
2016,04,17,12,19,12.70
2016,04,17,12,20,12.70
2016,04,17,12,21,12.70
2016,04,17,12,22,12.60
2016,04,17,12,23,12.70
2016,04,17,12,24,12.70
2016,04,17,12,25,12.70
2016,04,17,12,26,12.70
2016,04,17,12,27,12.70
2016,04,17,12,28,12.70
2016,04,17,12,29,12.70
2016,04,17,12,30,12.70
2016,04,17,12,31,12.70
2016,04,17,12,32,12.70
2016,04,17,12,33,12.70
2016,04,17,12,34,12.70
2016,04,17,12,35,12.70
2016,04,17,12,36,12.70
2016,04,17,12,37,12.70
2016,04,17,12,38,12.70
2016,04,17,12,39,12.70
2016,04,17,12,40,12.80
2016,04,17,12,41,12.80
2016,04,17,12,42,12.80
2016,04,17,12,43,12.90
2016,04,17,12,44,12.90
2016,04,17,12,45,12.90
2016,04,17,12,46,12.90
2016,04,17,12,47,13.00
2016,04,17,12,48,13.10
2016,04,17,12,49,13.10
2016,04,17,12,50,13.10
2016,04,17,12,51,13.20
2016,04,17,12,52,13.20
2016,04,17,12,53,13.20
2016,04,17,12,54,13.30
2016,04,17,12,55,13.30
2016,04,17,12,56,13.30
2016,04,17,12,57,13.40
2016,04,17,12,58,13.40
2016,04,17,12,59,13.50
2016,04,17,13,00,13.50
2016,04,17,13,01,13.50
2016,04,17,13,02,13.60
2016,04,17,13,03,13.60
2016,04,17,13,04,13.60
2016,04,17,13,05,13.60
2016,04,17,13,06,13.60
2016,04,17,13,07,13.60
2016,04,17,13,08,13.60
2016,04,17,13,09,13.70
2016,04,17,13,10,13.70
2016,04,17,13,11,13.70
2016,04,17,13,12,13.80
2016,04,17,13,13,13.80
2016,04,17,13,14,13.80
2016,04,17,13,15,13.80
2016,04,17,13,16,13.80
2016,04,17,13,17,13.90
2016,04,17,13,18,13.90
2016,04,17,13,19,13.90
2016,04,17,13,20,13.90
2016,04,17,13,21,14.00
2016,04,17,13,22,14.00
2016,04,17,13,23,14.00
2016,04,17,13,24,14.10
2016,04,17,13,25,14.10
2016,04,17,13,26,14.10
2016,04,17,13,27,14.10
2016,04,17,13,28,14.10
2016,04,17,13,29,14.20
2016,04,17,13,30,14.20
2016,04,17,13,31,14.20
2016,04,17,13,32,14.30
2016,04,17,13,33,14.30
2016,04,17,13,34,14.40
2016,04,17,13,35,14.40
2016,04,17,13,36,14.40
2016,04,17,13,37,14.50
2016,04,17,13,38,14.50
2016,04,17,13,39,14.50
2016,04,17,13,40,14.50
2016,04,17,13,41,14.50
2016,04,17,13,42,14.50
2016,04,17,13,43,14.50
2016,04,17,13,44,14.50
2016,04,17,13,45,14.50
2016,04,17,13,46,14.50
2016,04,17,13,47,14.60
2016,04,17,13,48,14.60
2016,04,17,13,49,14.70
2016,04,17,13,50,14.70
2016,04,17,13,51,14.80
2016,04,17,13,52,14.90
2016,04,17,13,53,14.90
2016,04,17,13,54,15.00
2016,04,17,13,55,15.00
2016,04,17,13,56,15.00
2016,04,17,13,57,15.00
2016,04,17,13,58,15.10
2016,04,17,13,59,15.20
2016,04,17,14,00,15.30
2016,04,17,14,01,15.30
2016,04,17,14,02,15.40
2016,04,17,14,03,15.40
2016,04,17,14,04,15.40
2016,04,17,14,05,15.40
2016,04,17,14,06,15.40
2016,04,17,14,07,15.40
2016,04,17,14,08,15.40
2016,04,17,14,09,15.40
2016,04,17,14,10,15.40
2016,04,17,14,11,15.40
2016,04,17,14,12,15.50
2016,04,17,14,13,15.50
2016,04,17,14,14,15.50
2016,04,17,14,15,15.60
2016,04,17,14,16,15.60
2016,04,17,14,17,15.60
2016,04,17,14,18,15.50
2016,04,17,14,19,15.50
2016,04,17,14,20,15.50
2016,04,17,14,21,15.50
2016,04,17,14,22,15.50
2016,04,17,14,23,15.40
2016,04,17,14,24,15.40
2016,04,17,14,25,15.30
2016,04,17,14,26,15.30
2016,04,17,14,27,15.30
2016,04,17,14,28,15.30
2016,04,17,14,29,15.30
2016,04,17,14,30,15.30
2016,04,17,14,31,15.40
2016,04,17,14,32,15.50
2016,04,17,14,33,15.60
2016,04,17,14,34,15.70
2016,04,17,14,35,15.70
2016,04,17,14,36,15.80
2016,04,17,14,37,15.80
2016,04,17,14,38,15.90
2016,04,17,14,39,15.90
2016,04,17,14,40,16.00
2016,04,17,14,41,16.00
2016,04,17,14,42,16.00
2016,04,17,14,43,15.90
2016,04,17,14,44,15.90
2016,04,17,14,45,15.80
2016,04,17,14,46,15.80
2016,04,17,14,47,15.70
2016,04,17,14,48,15.70
2016,04,17,14,49,15.70
2016,04,17,14,50,15.60
2016,04,17,14,51,15.60
2016,04,17,14,52,15.60
2016,04,17,14,53,15.60
2016,04,17,14,54,15.60
2016,04,17,14,55,15.60
2016,04,17,14,56,15.60
2016,04,17,14,57,15.60
2016,04,17,14,58,15.60
2016,04,17,14,59,15.60
2016,04,17,15,00,15.60
2016,04,17,15,01,15.60
2016,04,17,15,02,15.60
2016,04,17,15,03,15.60
2016,04,17,15,04,15.60
2016,04,17,15,05,15.60
2016,04,17,15,06,15.50
2016,04,17,15,07,15.50
2016,04,17,15,08,15.50
2016,04,17,15,09,15.40
2016,04,17,15,10,15.40
2016,04,17,15,11,15.40
2016,04,17,15,12,15.40
2016,04,17,15,13,15.40
2016,04,17,15,14,15.40
2016,04,17,15,15,15.50
2016,04,17,15,16,15.50
2016,04,17,15,17,15.60
2016,04,17,15,18,15.60
2016,04,17,15,19,15.70
2016,04,17,15,20,15.70
2016,04,17,15,21,15.70
2016,04,17,15,22,15.70
2016,04,17,15,23,15.70
2016,04,17,15,24,15.70
2016,04,17,15,25,15.70
2016,04,17,15,26,15.60
2016,04,17,15,27,15.60
2016,04,17,15,28,15.50
2016,04,17,15,29,15.50
2016,04,17,15,30,15.50
2016,04,17,15,31,15.40
2016,04,17,15,32,15.40
2016,04,17,15,33,15.40
2016,04,17,15,34,15.30
2016,04,17,15,35,15.30
2016,04,17,15,36,15.20
2016,04,17,15,37,15.20
2016,04,17,15,38,15.20
2016,04,17,15,39,15.10
2016,04,17,15,40,15.10
2016,04,17,15,41,15.10
2016,04,17,15,42,15.00
2016,04,17,15,43,15.00
2016,04,17,15,44,15.00
2016,04,17,15,45,15.00
2016,04,17,15,46,15.00
2016,04,17,15,47,15.00
2016,04,17,15,48,15.00
2016,04,17,15,49,15.00
2016,04,17,15,50,15.00
2016,04,17,15,51,15.00
2016,04,17,15,52,15.00
2016,04,17,15,53,15.00
2016,04,17,15,54,15.00
2016,04,17,15,55,15.00
2016,04,17,15,56,15.00
2016,04,17,15,57,15.00
2016,04,17,15,58,15.00
2016,04,17,15,59,15.00
2016,04,17,16,00,15.00
2016,04,17,16,01,15.00
2016,04,17,16,02,15.00
2016,04,17,16,03,15.00
2016,04,17,16,04,15.00
2016,04,17,16,05,15.10
2016,04,17,16,06,15.10
2016,04,17,16,07,15.20
2016,04,17,16,08,15.20
2016,04,17,16,09,15.20
2016,04,17,16,10,15.20
2016,04,17,16,11,15.20
2016,04,17,16,12,15.30
2016,04,17,16,13,15.30
2016,04,17,16,14,15.30
2016,04,17,16,15,15.30
2016,04,17,16,16,15.30
2016,04,17,16,17,15.40
2016,04,17,16,18,15.40
2016,04,17,16,19,15.40
2016,04,17,16,20,15.40
2016,04,17,16,21,15.50
2016,04,17,16,22,15.50
2016,04,17,16,23,15.60
2016,04,17,16,24,15.60
2016,04,17,16,25,15.60
2016,04,17,16,26,15.60
2016,04,17,16,27,15.60
2016,04,17,16,28,15.60
2016,04,17,16,29,15.60
2016,04,17,16,30,15.50
2016,04,17,16,31,15.50
2016,04,17,16,32,15.50
2016,04,17,16,33,15.40
2016,04,17,16,34,15.40
2016,04,17,16,35,15.40
2016,04,17,16,36,15.40
2016,04,17,16,37,15.30
2016,04,17,16,38,15.30
2016,04,17,16,39,15.30
2016,04,17,16,40,15.30
2016,04,17,16,41,15.30
2016,04,17,16,42,15.20
2016,04,17,16,43,15.20
2016,04,17,16,44,15.20
2016,04,17,16,45,15.20
2016,04,17,16,46,15.20
2016,04,17,16,47,15.20
2016,04,17,16,48,15.20
2016,04,17,16,49,15.20
2016,04,17,16,50,15.20
2016,04,17,16,51,15.20
2016,04,17,16,52,15.20
2016,04,17,16,53,15.20
2016,04,17,16,54,15.20
2016,04,17,16,55,15.20
2016,04,17,16,56,15.20
2016,04,17,16,57,15.20
2016,04,17,16,58,15.20
2016,04,17,16,59,15.20
2016,04,17,17,00,15.20
2016,04,17,17,01,15.20
2016,04,17,17,02,15.20
2016,04,17,17,03,15.30
2016,04,17,17,04,15.30
2016,04,17,17,05,15.30
2016,04,17,17,06,15.30
2016,04,17,17,07,15.30
2016,04,17,17,08,15.30
2016,04,17,17,09,15.30
2016,04,17,17,10,15.30
2016,04,17,17,11,15.30
2016,04,17,17,12,15.30
2016,04,17,17,13,15.30
2016,04,17,17,14,15.30
2016,04,17,17,15,15.30
2016,04,17,17,16,15.30
2016,04,17,17,17,15.30
2016,04,17,17,18,15.30
2016,04,17,17,19,15.40
2016,04,17,17,20,15.40
2016,04,17,17,21,15.40
2016,04,17,17,22,15.50
2016,04,17,17,23,15.50
2016,04,17,17,24,15.60
2016,04,17,17,25,15.60
2016,04,17,17,26,15.70
2016,04,17,17,27,15.70
2016,04,17,17,28,15.80
2016,04,17,17,29,15.80
2016,04,17,17,30,15.80
2016,04,17,17,31,15.90
2016,04,17,17,32,16.00
2016,04,17,17,33,16.00
2016,04,17,17,34,16.10
2016,04,17,17,35,16.10
2016,04,17,17,36,16.10
2016,04,17,17,37,16.20
2016,04,17,17,38,16.30
2016,04,17,17,39,16.30
2016,04,17,17,40,16.40
2016,04,17,17,41,16.40